Radiation Dose at Monitoring Post of Fukushima Daini Nuclear Power Station
Date,Time,MP-1(microSv/h),MP-2(microSv/h),MP-3(microSv/h),MP-4(microSv/h),MP-5(microSv/h),MP-6(microSv/h),MP-7(microSv/h),Wind Direction,Wind Velocity(m/s),Rain
2013/09/14,00:00,0.9,0.6,0.9,0.8,0.8,0.4,0.3,south-southwest,6.8,No
2013/09/14,00:10,0.9,0.6,0.9,0.8,0.8,0.4,0.3,south-southwest,6.6,No
2013/09/14,00:20,0.9,0.6,0.9,0.8,0.8,0.4,0.3,south-southwest,6.4,No
2013/09/14,00:30,0.9,0.6,0.9,0.8,0.8,0.4,0.3,south-southwest,6.8,No
2013/09/14,00:40,0.9,0.6,0.9,0.8,0.8,0.4,0.3,south-southwest,6.4,No
2013/09/14,00:50,0.9,0.6,0.9,0.8,0.8,0.4,0.3,south-southwest,6.5,No
2013/09/14,01:00,0.9,0.6,0.9,0.8,0.8,0.4,0.3,south-southwest,6.4,No
2013/09/14,01:10,0.9,0.6,0.9,0.8,0.8,0.4,0.3,south-southwest,6.1,No
2013/09/14,01:20,0.9,0.6,0.9,0.8,0.8,0.4,0.3,south-southwest,5.8,No
2013/09/14,01:30,0.9,0.6,0.9,0.8,0.8,0.4,0.3,south-southwest,5.1,No
2013/09/14,01:40,0.9,0.6,0.9,0.8,0.8,0.4,0.3,south-southwest,4.3,No
2013/09/14,01:50,0.9,0.6,0.9,0.8,0.8,0.4,0.3,south-southwest,3.3,No
2013/09/14,02:00,0.9,0.6,0.9,0.8,0.8,0.4,0.3,south,3.1,No
2013/09/14,02:10,0.9,0.6,0.9,0.8,0.8,0.4,0.3,south,3.1,No
2013/09/14,02:20,0.9,0.6,0.9,0.8,0.8,0.4,0.3,south,3.4,No
2013/09/14,02:30,0.9,0.6,0.9,0.8,0.8,0.4,0.3,south,3.8,No
2013/09/14,02:40,0.9,0.6,0.9,0.8,0.8,0.4,0.3,south,3.6,No
2013/09/14,02:50,0.9,0.6,0.9,0.8,0.8,0.4,0.3,south,4.0,No
2013/09/14,03:00,0.9,0.6,0.9,0.8,0.8,0.4,0.3,south,3.1,No
2013/09/14,03:10,0.9,0.6,0.9,0.8,0.8,0.4,0.3,south,2.5,No
2013/09/14,03:20,0.9,0.6,0.9,0.8,0.8,0.4,0.3,south,2.2,No
2013/09/14,03:30,0.9,0.6,0.9,0.8,0.8,0.4,0.3,south,1.4,No
2013/09/14,03:40,0.9,0.6,0.9,0.8,0.8,0.4,0.3,south,1.3,No
2013/09/14,03:50,0.9,0.6,0.9,0.8,0.8,0.4,0.3,south-southwest,2.6,No
2013/09/14,04:00,0.9,0.6,0.9,0.8,0.8,0.4,0.3,south-southwest,3.1,No
2013/09/14,04:10,0.9,0.6,0.9,0.8,0.8,0.4,0.3,south-southwest,3.6,No
2013/09/14,04:20,0.9,0.6,0.9,0.8,0.8,0.4,0.3,south-southwest,3.8,No
2013/09/14,04:30,0.9,0.6,0.9,0.8,0.8,0.4,0.3,south-southwest,3.1,No
2013/09/14,04:40,0.9,0.6,0.9,0.8,0.8,0.4,0.3,south-southwest,2.5,No
2013/09/14,04:50,0.9,0.6,0.9,0.8,0.8,0.4,0.3,south-southwest,2.2,No
2013/09/14,05:00,0.9,0.6,0.9,0.8,0.8,0.4,0.3,southwest,2.3,No
2013/09/14,05:10,0.9,0.6,0.9,0.8,0.8,0.4,0.3,southwest,2.6,No
2013/09/14,05:20,0.9,0.6,0.9,0.8,0.8,0.4,0.3,southwest,4.5,No
2013/09/14,05:30,0.9,0.6,0.9,0.8,0.8,0.4,0.3,southwest,4.5,No
2013/09/14,05:40,0.9,0.6,0.9,0.8,0.8,0.4,0.3,south-southwest,2.9,No
2013/09/14,05:50,0.9,0.6,0.9,0.8,0.8,0.4,0.3,south-southwest,2.1,No
2013/09/14,06:00,0.9,0.6,0.9,0.8,0.8,0.4,0.3,south-southwest,3.0,No
2013/09/14,06:10,0.9,0.6,0.9,0.8,0.8,0.4,0.3,south-southwest,2.9,No
2013/09/14,06:20,0.9,0.6,0.9,0.8,0.8,0.4,0.3,south-southwest,1.8,No
2013/09/14,06:30,0.9,0.6,0.9,0.8,0.8,0.4,0.3,south-southwest,1.7,No
2013/09/14,06:40,0.9,0.6,0.9,0.8,0.8,0.4,0.3,south-southwest,2.1,No
2013/09/14,06:50,0.9,0.6,0.9,0.8,0.8,0.4,0.3,south,2.1,No
2013/09/14,07:00,0.9,0.6,0.9,0.8,0.8,0.4,0.3,south-southwest,2.3,No
2013/09/14,07:10,0.9,0.6,0.9,0.8,0.8,0.4,0.3,south-southwest,1.9,No
2013/09/14,07:20,0.9,0.6,0.9,0.8,0.8,0.4,0.3,south-southwest,2.3,No
2013/09/14,07:30,0.9,0.6,0.9,0.8,0.8,0.4,0.3,south-southwest,2.2,No
2013/09/14,07:40,0.9,0.6,0.9,0.8,0.8,0.4,0.3,south,3.3,No
2013/09/14,07:50,0.9,0.6,0.9,0.8,0.8,0.4,0.3,south,3.8,No
2013/09/14,08:00,0.9,0.6,0.9,0.8,0.8,0.4,0.3,south,4.6,No
2013/09/14,08:10,0.9,0.6,0.9,0.8,0.8,0.4,0.3,south,4.2,No
2013/09/14,08:20,0.9,0.6,0.9,0.8,0.8,0.4,0.3,south,3.5,No
2013/09/14,08:30,0.9,0.6,0.9,0.8,0.8,0.4,0.3,south,3.0,No
2013/09/14,08:40,0.9,0.6,0.9,0.8,0.8,0.4,0.3,south,3.2,No
2013/09/14,08:50,0.9,0.6,0.9,0.8,0.8,0.4,0.3,south,3.5,No
2013/09/14,09:00,0.9,0.6,0.9,0.8,0.8,0.4,0.3,south,4.5,No
2013/09/14,09:10,0.9,0.6,0.9,0.8,0.8,0.4,0.3,south,5.0,No
2013/09/14,09:20,0.9,0.6,0.9,0.8,0.8,0.4,0.3,south-southwest,4.5,No
2013/09/14,09:30,0.9,0.6,0.9,0.8,0.8,0.4,0.3,south,5.0,No
2013/09/14,09:40,0.9,0.6,0.9,0.8,0.8,0.4,0.3,south,5.3,No
2013/09/14,09:50,0.9,0.6,0.9,0.8,0.8,0.4,0.3,south,7.0,No
2013/09/14,10:00,0.9,0.6,0.9,0.8,0.8,0.4,0.3,south,8.8,No
2013/09/14,10:10,0.9,0.6,0.9,0.8,0.8,0.4,0.3,south,8.7,No
2013/09/14,10:20,0.9,0.6,0.9,0.8,0.8,0.4,0.3,south,8.1,No
2013/09/14,10:30,0.9,0.6,0.9,0.8,0.8,0.4,0.3,south,8.3,No
2013/09/14,10:40,0.9,0.6,0.9,0.8,0.8,0.4,0.3,south,8.3,No
2013/09/14,10:50,0.9,0.6,0.9,0.8,0.8,0.4,0.3,south,8.9,No
2013/09/14,11:00,0.9,0.6,0.9,0.8,0.8,0.4,0.3,south,8.7,No
2013/09/14,11:10,0.9,0.6,0.9,0.8,0.8,0.4,0.3,south,8.6,No
2013/09/14,11:20,0.9,0.6,0.9,0.8,0.8,0.4,0.3,south,9.3,No
2013/09/14,11:30,0.9,0.6,0.9,0.8,0.8,0.4,0.3,south,8.2,No
2013/09/14,11:40,0.9,0.6,0.9,0.8,0.8,0.4,0.3,south,9.0,No
2013/09/14,11:50,0.9,0.6,0.9,0.8,0.8,0.4,0.3,south,9.0,No
2013/09/14,12:00,0.9,0.6,0.9,0.8,0.8,0.4,0.3,south,10.3,No
2013/09/14,12:10,0.9,0.6,0.9,0.8,0.8,0.4,0.3,south,10.5,No
2013/09/14,12:20,0.9,0.6,0.9,0.8,0.8,0.4,0.3,south,11.1,No
2013/09/14,12:30,0.9,0.6,0.9,0.8,0.8,0.4,0.3,south,9.4,No
2013/09/14,12:40,0.9,0.6,0.9,0.8,0.8,0.4,0.3,south,9.5,No
2013/09/14,12:50,0.9,0.6,0.9,0.8,0.8,0.4,0.3,south,9.8,No
2013/09/14,13:00,0.9,0.6,0.9,0.8,0.8,0.4,0.3,south,10.0,No
2013/09/14,13:10,0.9,0.6,0.9,0.8,0.8,0.4,0.3,south,9.8,No
2013/09/14,13:20,0.9,0.6,0.9,0.8,0.8,0.4,0.3,south,10.1,No
2013/09/14,13:30,0.9,0.6,0.9,0.8,0.8,0.4,0.3,south,10.1,No
2013/09/14,13:40,0.9,0.6,0.9,0.8,0.8,0.4,0.3,south,9.2,No
2013/09/14,13:50,0.9,0.6,0.9,0.8,0.8,0.4,0.3,south,9.6,No
2013/09/14,14:00,0.9,0.6,0.9,0.8,0.8,0.4,0.3,south,9.8,No
2013/09/14,14:10,0.9,0.6,0.9,0.8,0.8,0.4,0.3,south,9.5,No
2013/09/14,14:20,0.9,0.6,0.9,0.8,0.8,0.4,0.3,south,9.5,No
2013/09/14,14:30,0.9,0.6,0.9,0.8,0.8,0.4,0.3,south,9.6,No
2013/09/14,14:40,0.9,0.6,0.9,0.8,0.8,0.4,0.3,south,9.4,No
2013/09/14,14:50,0.9,0.6,0.9,0.8,0.8,0.4,0.3,south,9.3,No
2013/09/14,15:00,0.9,0.6,0.9,0.8,0.8,0.4,0.3,south,9.4,No
2013/09/14,15:10,0.9,0.6,0.9,0.8,0.8,0.4,0.3,south-southwest,8.9,No
2013/09/14,15:20,0.9,0.6,0.9,0.8,0.8,0.4,0.3,south-southwest,9.1,No
2013/09/14,15:30,0.9,0.6,0.9,0.8,0.8,0.4,0.3,south-southwest,8.7,No
2013/09/14,15:40,0.9,0.6,0.9,0.8,0.8,0.4,0.3,south-southwest,8.0,No
2013/09/14,15:50,0.9,0.6,0.9,0.8,0.8,0.4,0.3,south,8.1,No
2013/09/14,16:00,0.9,0.6,0.9,0.8,0.8,0.4,0.3,south,9.0,No
2013/09/14,16:10,0.9,0.6,0.9,0.8,0.8,0.4,0.3,south,8.6,No
2013/09/14,16:20,0.9,0.6,0.9,0.8,0.8,0.4,0.3,south,8.0,No
2013/09/14,16:30,0.9,0.6,0.9,0.8,0.8,0.4,0.3,south-southwest,8.4,No
2013/09/14,16:40,0.9,0.6,0.9,0.8,0.8,0.4,0.3,south-southwest,7.5,No
2013/09/14,16:50,0.9,0.6,0.9,0.8,0.8,0.4,0.3,south-southwest,7.9,No
2013/09/14,17:00,0.9,0.6,0.9,0.8,0.8,0.4,0.3,south-southwest,7.6,No
2013/09/14,17:10,0.9,0.6,0.9,0.8,0.8,0.4,0.3,south-southwest,7.5,No
2013/09/14,17:20,0.9,0.6,0.9,0.8,0.8,0.4,0.3,south-southwest,6.6,No
2013/09/14,17:30,0.9,0.6,0.9,0.8,0.8,0.4,0.3,south-southwest,6.4,No
2013/09/14,17:40,0.9,0.6,0.9,0.8,0.8,0.4,0.3,south-southwest,7.4,No
2013/09/14,17:50,0.9,0.6,0.9,0.8,0.8,0.4,0.3,south-southwest,7.1,No
2013/09/14,18:00,0.9,0.6,0.9,0.8,0.8,0.4,0.3,south-southwest,7.0,No
2013/09/14,18:10,0.9,0.6,0.9,0.8,0.8,0.4,0.3,south-southwest,6.5,No
2013/09/14,18:20,0.9,0.6,0.9,0.8,0.8,0.4,0.3,south-southwest,7.0,No
2013/09/14,18:30,0.9,0.6,0.9,0.8,0.8,0.4,0.3,south,6.7,No
2013/09/14,18:40,0.9,0.6,0.9,0.8,0.8,0.4,0.3,south-southwest,6.6,No
2013/09/14,18:50,0.9,0.6,0.9,0.8,0.8,0.4,0.3,south-southwest,6.9,No
2013/09/14,19:00,0.9,0.6,0.9,0.8,0.8,0.4,0.3,south-southwest,6.4,No
2013/09/14,19:10,0.9,0.6,0.9,0.8,0.8,0.4,0.3,south-southwest,7.6,No
2013/09/14,19:20,0.9,0.6,0.9,0.8,0.8,0.4,0.3,south-southwest,7.1,No
2013/09/14,19:30,0.9,0.6,0.9,0.8,0.8,0.4,0.3,south-southwest,6.9,No
2013/09/14,19:40,0.9,0.6,0.9,0.8,0.8,0.4,0.3,south-southwest,6.3,No
2013/09/14,19:50,0.9,0.6,0.9,0.8,0.8,0.4,0.3,south-southwest,6.2,No
2013/09/14,20:00,0.9,0.6,0.9,0.8,0.8,0.4,0.3,south-southwest,7.5,No
2013/09/14,20:10,0.9,0.6,0.9,0.8,0.8,0.4,0.3,south-southwest,8.3,No
2013/09/14,20:20,0.9,0.6,0.9,0.8,0.8,0.4,0.3,south-southwest,7.9,No
2013/09/14,20:30,0.9,0.6,0.9,0.8,0.8,0.4,0.3,south-southwest,8.0,No
2013/09/14,20:40,0.9,0.6,0.9,0.8,0.8,0.4,0.3,south-southwest,7.7,No
2013/09/14,20:50,0.9,0.6,0.9,0.8,0.8,0.4,0.3,south-southwest,7.8,No
2013/09/14,21:00,0.9,0.6,0.9,0.8,0.8,0.4,0.3,south-southwest,7.1,No
2013/09/14,21:10,0.9,0.6,0.9,0.8,0.8,0.4,0.3,south-southwest,6.7,No
2013/09/14,21:20,0.9,0.6,0.9,0.8,0.8,0.4,0.3,south-southwest,6.7,No
2013/09/14,21:30,0.9,0.6,0.9,0.8,0.8,0.4,0.3,south-southwest,5.8,No
2013/09/14,21:40,0.9,0.6,0.9,0.8,0.8,0.4,0.3,south-southwest,5.9,No
2013/09/14,21:50,0.9,0.6,0.9,0.8,0.8,0.4,0.3,south-southwest,6.7,No
2013/09/14,22:00,0.9,0.6,0.9,0.8,0.8,0.4,0.3,south-southwest,6.0,No
2013/09/14,22:10,0.9,0.6,0.9,0.8,0.8,0.4,0.3,south-southwest,7.5,No
2013/09/14,22:20,0.9,0.6,0.9,0.8,0.8,0.4,0.3,south-southwest,8.2,No
2013/09/14,22:30,0.9,0.6,0.9,0.8,0.8,0.4,0.3,south-southwest,6.3,No
2013/09/14,22:40,0.9,0.6,0.9,0.8,0.8,0.4,0.3,south-southwest,6.0,No
2013/09/14,22:50,0.9,0.6,0.9,0.8,0.8,0.4,0.3,south-southwest,6.8,No
2013/09/14,23:00,0.9,0.6,0.9,0.8,0.8,0.4,0.3,south-southwest,5.7,No
2013/09/14,23:10,0.9,0.6,0.9,0.8,0.8,0.4,0.3,south-southwest,5.9,No
2013/09/14,23:20,0.9,0.6,0.9,0.8,0.8,0.4,0.3,south-southwest,6.4,No
2013/09/14,23:30,0.9,0.6,0.9,0.8,0.8,0.4,0.3,south-southwest,6.4,No
2013/09/14,23:40,0.9,0.6,0.9,0.8,0.8,0.4,0.3,south-southwest,6.6,No
2013/09/14,23:50,0.9,0.6,0.9,0.8,0.8,0.4,0.3,south-southwest,6.0,No
